Погода в Солнечной Долине

Россия / Республика Крым     44°52′29″N   35°06′09″E
темп.,
°C
ветер,
м/с
пор.,
м/с
влажн.,
%
обл.,
%
осадки,
мм/ч
давл.,
гПа
погр.,
м
19 апреля, пн
пн1900:00+10ссв228898 0.0 101520
03:00+10в2290100 0.0 101514
06:00+10всв119190 0.0 101411
09:00+11ююв1189100 0.0 101464
12:00+11ююз2285100 0.0 1014142
15:00+12з1184100 0.0 1014119
18:00+11всв2285100 0.0 1013112
21:00+11с1188100 0.0 101219
20 апреля, вт
вт2000:00+11всв4595100 2.4 1009230
03:00+10всв459792 5.6 1006142
06:00+10ю2399100 6.4 1005134
09:00+10юз7109668 6.9 1004393
12:00+10юз12149456 0.1 1004619
15:00+11з11157894 0.1 1008930
18:00+11юз688018 0.0 1010319
21:00+11зюз22811 0.0 101221
21 апреля, ср
ср2100:00+10ююз238613 0.0 101460
03:00+10юз45885 0.0 1014193
06:00+10зюз338410 0.0 1015132
09:00+11юз227963 0.0 1017104
12:00+11юз347869 0.0 1018279
15:00+11юз67825 0.1 1018320
18:00+11юз56875 0.0 1019215
21:00+10юз12916 0.0 102035
22 апреля, чт
чт2200:00+10ю348822 0.0 102094
03:00+10з238522 0.0 102059
06:00+10з11805 0.0 102121
09:00+11ююз44795 0.0 1022142
12:00+11юз57825 0.0 1023259
15:00+11юз57825 0.1 1023224
18:00+11зюз45815 0.1 1023131
21:00+11зюз22830 0.1 102424
23 апреля, пт
пт2300:00+11зюз33830 0.0 102342
03:00+10зюз33820 0.0 102346
06:00+10зюз22801 0.0 102323
09:00+11ююз23760 0.0 1023114
12:00+11юз22750 0.0 1023169
15:00+12ююз23750 0.0 1022249
18:00+12юз2278100 0.0 1021126
21:00+11юз1282100 0.0 102015